Location: Seminole
(32.7190°N, 102.6440°W)
Time: 15:06:55
(UTC-05:00)

Meteor 2-10 - Visible Passes

Search period start: 21 June 2018 00:00
Search period end: 01 July 2018 00:00
Orbit: 737 x 869 km, 81.2° (Epoch: 20 June)

Date Brightness Start Highest point End Pass type
(mag) Time Alt. Az. Time Alt. Az. Time Alt. Az.
21 Jun 6.3 00:59:16 10° NW 01:02:22 15° W 01:02:37 15° W visible
21 Jun 4.9 22:49:53 10° NNE 22:54:49 34° ENE 22:56:00 31° ESE visible
22 Jun 5.8 00:32:13 10° NW 00:36:29 24° W 00:37:02 23° W visible
22 Jun 5.5 22:24:21 10° NNE 22:28:39 23° ENE 22:30:26 20° ESE visible
23 Jun 5.2 00:05:37 10° NNW 00:10:34 35° W 00:11:28 33° WSW visible
23 Jun 5.9 21:59:14 10° NE 22:02:25 15° ENE 22:04:53 12° E visible
23 Jun 4.7 23:39:15 10° NNW 23:44:35 54° W 23:45:55 44° SW visible
24 Jun 4.2 23:13:03 10° N 23:18:36 82° W 23:20:24 45° S visible
25 Jun 4.2 22:47:02 10° N 22:52:32 67° E 22:54:54 35° SSE visible
26 Jun 6.7 00:31:54 10° WNW 00:33:49 12° W 00:35:45 10° WSW visible
26 Jun 4.6 22:21:09 10° N 22:26:27 44° ENE 22:29:27 24° SE visible
27 Jun 6.3 00:04:14 10° NW 00:07:58 19° W 00:10:29 14° WSW visible
27 Jun 5.2 21:55:28 10° NNE 22:00:19 30° ENE 22:04:01 15° SE visible
27 Jun 5.8 23:37:24 10° NNW 23:42:05 28° W 23:45:03 18° SW visible
28 Jun 5.6 21:30:04 10° NNE 21:34:08 20° ENE 21:38:13 10° ESE visible
28 Jun 5.2 23:10:55 10° NNW 23:16:08 42° W 23:19:39 20° SSW visible
29 Jun 4.6 22:44:38 10° NNW 22:50:10 64° W 22:54:18 19° S visible
30 Jun 4.2 22:18:30 10° N 22:24:09 86° E 22:28:57 15° S visible
